Home > Weather > Santa Clarita > Past weeks

Flag for USA Weather for the Past 2 Weeks in Santa Clarita, California, USA

Now
56 °F

Passing clouds.


Feels Like: 56 °F
Forecast: 51 / 78 °F
Wind: No wind

Location: Van Nuys Airport

Current Time: May 1, 2016 at 7:23:30 AM

Latest Report: May 1, 2016 at 6:51 AM


Visibility: 10 mi

Pressure: 29.87 "Hg

Humidity: 77%

Dew Point: 49 °F

Location of Santa ClaritaLocation

Historic Weather in Santa Clarita — Graph

°F

Santa Clarita Temperature Yesterday

Maximum temperature yesterday: 71 °F (at 1:51 PM)
Minimum temperature yesterday: 54 °F (at 2:51 AM)
Average temperature yesterday: 62 °F

High & Low Weather Summary for the Past Weeks

 TemperatureHumidityPressure
High90 °F (Apr 17, 3:51 PM)87% (Apr 22, 5:51 AM)30.05 "Hg (Apr 22, 5:51 AM)
Low49 °F (Apr 26, 6:51 AM)6% (Apr 16, 1:51 PM)29.71 "Hg (Apr 27, 7:51 PM)
Average66 °F41%29.90 "Hg
* Reported Apr 16 5:51 AM — May 1 5:51 AM, Santa Clarita, Weather by CustomWeather, © 2016

Note: Actual official high and low records may vary slightly from our data, if they occured in-between our weather recording intervals... More about our weather records

Advertising

Santa Clarita Weather History for the Previous 24 Hours

Scroll right to see more
 ConditionsComfort  
Time TempWeatherWind HumidityBarometerVisibility
5:51 AM
Sun, May 1
55 °FPassing clouds.3 mph74%29.85 "Hg10 mi
4:51 AM55 °FClear.No wind72%29.84 "Hg10 mi
3:51 AM56 °FClear.3 mph72%29.83 "Hg10 mi
2:51 AM55 °FClear.No wind74%29.82 "Hg10 mi
1:51 AM56 °FClear.No wind75%29.83 "Hg10 mi
12:51 AM57 °FClear.No wind72%29.83 "Hg10 mi
11:51 PM
Sat, Apr 30
57 °FClear.5 mph72%29.82 "Hg10 mi
10:51 PM59 °FClear.6 mph64%29.81 "Hg10 mi
9:51 PM61 °FClear.No wind60%29.80 "Hg10 mi
8:51 PM60 °FClear.5 mph62%29.79 "Hg10 mi
7:51 PM63 °FPassing clouds.6 mph54%29.77 "Hg10 mi
6:51 PM69 °FSunny.3 mph42%29.76 "Hg10 mi
5:51 PM68 °FScattered clouds.6 mph45%29.75 "Hg10 mi
4:51 PM70 °FSunny.12 mph42%29.74 "Hg10 mi
3:51 PM70 °FSunny.12 mph42%29.74 "Hg10 mi
2:51 PM70 °FPassing clouds.17 mph42%29.75 "Hg10 mi
1:51 PM71 °FSunny.13 mph42%29.76 "Hg10 mi
12:51 PM69 °FSunny.12 mph45%29.77 "Hg10 mi
11:51 AM68 °FPassing clouds.15 mph49%29.78 "Hg10 mi
10:51 AM68 °FScattered clouds.5 mph45%29.78 "Hg10 mi
9:51 AM63 °FSunny.5 mph56%29.80 "Hg10 mi
8:51 AM59 °FScattered clouds.6 mph67%29.82 "Hg10 mi
7:51 AM56 °FPartly sunny.No wind81%29.82 "Hg10 mi
Weather by CustomWeather, © 2016

See weather overviewHow to use our weather pages